Location: Navarre
(52.9016°N, 113.4144°W)
Time: 07:45:39
(UTC+00:00)

Envisat - Pass Details

Date: 09 December 2021
Orbit: 764 x 766 km, 98.2° (Epoch: 17 January)

Event Time Altitude Azimuth Distance (km) Brightness Sun altitude
Rises 00:22:17 0° 192° (SSW) 3,222 6.8 -9.0°
Reaches altitude 10° 00:24:48 10° 202° (SSW) 2,301 6.2 -9.4°
Maximum altitude 00:29:21 33° 266° (W) 1,282 4.9 -10.0°
Drops below altitude 10° 00:33:56 10° 329° (NNW) 2,316 5.6 -10.6°
Sets 00:36:29 0° 340° (NNW) 3,248 6.2 -11.0°
